Time,TemperatureF,DewpointF,PressureIn,WindDirection,WindDirectionDegrees,WindSpeedMPH,WindSpeedGustMPH,Humidity,HourlyPrecipIn,Conditions,Clouds,dailyrainin,SoftwareType,DateUTC
2013-06-15 00:01:00,46.2,42.2,30.02,ENE,57,0.0,1.0,86,0.00,,CLR,0.00,VWS V14.01,2013-06-15 04:01:00,
2013-06-15 00:02:00,46.2,42.0,30.02,ENE,57,1.0,1.0,85,0.00,,CLR,0.00,VWS V14.01,2013-06-15 04:02:00,
2013-06-15 00:07:00,46.1,42.2,30.02,East,79,2.0,2.0,86,0.00,,FEW110,0.00,VWS V14.01,2013-06-15 04:07:00,
2013-06-15 00:12:00,46.5,42.5,30.02,East,80,2.0,2.0,86,0.00,,FEW110,0.00,VWS V14.01,2013-06-15 04:12:00,
2013-06-15 00:17:00,46.1,42.5,30.01,ESE,105,2.0,2.0,87,0.00,,FEW110,0.00,VWS V14.01,2013-06-15 04:17:00,
2013-06-15 00:22:00,45.8,42.5,30.01,ESE,105,1.0,1.0,88,0.00,,FEW110,0.00,VWS V14.01,2013-06-15 04:22:00,
2013-06-15 00:27:00,45.9,42.5,30.00,ESE,105,0.0,1.0,88,0.00,,FEW110,0.00,VWS V14.01,2013-06-15 04:27:00,
2013-06-15 00:32:00,45.7,42.1,30.01,ESE,105,0.0,0.0,87,0.00,,FEW110,0.00,VWS V14.01,2013-06-15 04:32:00,
2013-06-15 00:37:00,45.7,42.4,30.01,ESE,105,0.0,1.0,88,0.00,,FEW110,0.00,VWS V14.01,2013-06-15 04:37:00,
2013-06-15 00:42:00,45.3,42.0,30.02,ESE,105,1.0,1.0,88,0.00,,FEW110,0.00,VWS V14.01,2013-06-15 04:42:00,
2013-06-15 00:47:00,45.2,41.9,30.01,ESE,105,1.0,1.0,88,0.00,,FEW110,0.00,VWS V14.01,2013-06-15 04:47:00,
2013-06-15 00:52:00,44.5,41.5,30.01,ESE,105,2.0,3.0,89,0.00,,FEW110,0.00,VWS V14.01,2013-06-15 04:52:00,
2013-06-15 00:57:00,44.3,41.3,30.01,ESE,105,1.0,2.0,89,0.00,,FEW110,0.00,VWS V14.01,2013-06-15 04:57:00,
2013-06-15 01:02:00,44.0,41.5,30.01,ESE,113,2.0,3.0,91,0.00,,FEW110,0.00,VWS V14.01,2013-06-15 05:02:00,
2013-06-15 01:08:00,43.8,41.3,30.01,ESE,109,0.0,1.0,91,0.00,,CLR,0.00,VWS V14.01,2013-06-15 05:08:00,
2013-06-15 01:13:00,43.7,41.2,30.01,ESE,109,0.0,0.0,91,0.00,,CLR,0.00,VWS V14.01,2013-06-15 05:13:00,
2013-06-15 01:18:00,43.5,41.0,30.01,ESE,109,0.0,1.0,91,0.00,,CLR,0.00,VWS V14.01,2013-06-15 05:18:00,
2013-06-15 01:23:00,43.4,41.0,30.01,ESE,114,0.0,1.0,91,0.00,,CLR,0.00,VWS V14.01,2013-06-15 05:23:00,
2013-06-15 01:28:00,42.7,40.3,30.01,ESE,117,0.0,1.0,91,0.00,,CLR,0.00,VWS V14.01,2013-06-15 05:28:00,
2013-06-15 01:33:00,42.2,40.0,30.01,ESE,117,1.0,2.0,92,0.00,,CLR,0.00,VWS V14.01,2013-06-15 05:33:00,
2013-06-15 01:38:00,42.4,40.5,30.00,ESE,117,2.0,2.0,93,0.00,,CLR,0.00,VWS V14.01,2013-06-15 05:38:00,
2013-06-15 01:43:00,41.8,39.4,30.00,ESE,117,0.0,1.0,91,0.00,,CLR,0.00,VWS V14.01,2013-06-15 05:43:00,
2013-06-15 01:48:00,41.9,40.0,30.00,ESE,117,1.0,2.0,93,0.00,,CLR,0.00,VWS V14.01,2013-06-15 05:48:00,
2013-06-15 01:53:00,42.3,40.7,30.00,ESE,117,1.0,1.0,94,0.00,,CLR,0.00,VWS V14.01,2013-06-15 05:53:00,
2013-06-15 01:58:00,42.4,40.2,30.01,ESE,117,2.0,2.0,92,0.00,,CLR,0.00,VWS V14.01,2013-06-15 05:58:00,
2013-06-15 02:03:00,42.2,39.8,30.02,ESE,117,0.0,0.0,91,0.00,,CLR,0.00,VWS V14.01,2013-06-15 06:03:00,
2013-06-15 02:08:00,41.8,39.7,30.01,ESE,117,0.0,0.0,92,0.00,,CLR,0.00,VWS V14.01,2013-06-15 06:08:00,
2013-06-15 02:13:00,41.3,39.2,30.01,ESE,117,1.0,1.0,92,0.00,,CLR,0.00,VWS V14.01,2013-06-15 06:13:00,
2013-06-15 02:18:00,41.1,39.2,30.00,ESE,117,2.0,2.0,93,0.00,,CLR,0.00,VWS V14.01,2013-06-15 06:18:00,
2013-06-15 02:23:00,42.1,40.5,30.01,ESE,117,1.0,1.0,94,0.00,,CLR,0.00,VWS V14.01,2013-06-15 06:23:00,
2013-06-15 02:28:00,42.4,40.5,30.00,ESE,117,2.0,2.0,93,0.00,,CLR,0.00,VWS V14.01,2013-06-15 06:28:00,
2013-06-15 02:33:00,42.3,40.2,30.00,ESE,117,1.0,2.0,92,0.00,,CLR,0.00,VWS V14.01,2013-06-15 06:33:00,
2013-06-15 02:38:00,42.6,40.4,30.00,ESE,117,2.0,2.0,92,0.00,,CLR,0.00,VWS V14.01,2013-06-15 06:38:00,
2013-06-15 02:43:00,42.5,40.1,30.00,ESE,117,1.0,1.0,91,0.00,,CLR,0.00,VWS V14.01,2013-06-15 06:43:00,
2013-06-15 02:48:00,42.4,40.2,30.00,ESE,117,2.0,2.0,92,0.00,,CLR,0.00,VWS V14.01,2013-06-15 06:48:00,
2013-06-15 02:53:00,42.4,40.2,30.00,ESE,117,1.0,2.0,92,0.00,,CLR,0.00,VWS V14.01,2013-06-15 06:53:00,
2013-06-15 02:58:00,42.5,40.3,30.01,ESE,117,0.0,1.0,92,0.00,,CLR,0.00,VWS V14.01,2013-06-15 06:58:00,
2013-06-15 03:03:00,42.1,39.7,30.01,ESE,117,0.0,1.0,91,0.00,,OVC100,0.00,VWS V14.01,2013-06-15 07:03:00,
2013-06-15 03:08:00,41.8,39.4,30.01,ESE,117,0.0,0.0,91,0.00,,OVC100,0.00,VWS V14.01,2013-06-15 07:08:00,
2013-06-15 03:13:00,41.1,38.7,30.02,ESE,117,0.0,1.0,91,0.00,,OVC100,0.00,VWS V14.01,2013-06-15 07:13:00,
2013-06-15 03:18:00,41.0,38.9,30.02,ESE,117,0.0,1.0,92,0.00,,OVC100,0.00,VWS V14.01,2013-06-15 07:18:00,
2013-06-15 03:23:00,41.5,39.6,30.01,East,101,1.0,1.0,93,0.00,,OVC100,0.00,VWS V14.01,2013-06-15 07:23:00,
2013-06-15 03:29:00,42.1,40.5,30.01,East,101,1.0,1.0,94,0.00,,OVC100,0.00,VWS V14.01,2013-06-15 07:29:00,
2013-06-15 03:34:00,42.7,40.8,30.01,East,101,1.0,1.0,93,0.00,,OVC100,0.00,VWS V14.01,2013-06-15 07:34:00,
2013-06-15 03:39:00,43.2,41.3,30.01,East,101,0.0,0.0,93,0.00,,OVC100,0.00,VWS V14.01,2013-06-15 07:39:00,
2013-06-15 03:44:00,43.5,41.3,30.01,East,101,1.0,2.0,92,0.00,,OVC100,0.00,VWS V14.01,2013-06-15 07:44:00,
2013-06-15 03:49:00,43.8,41.3,30.01,East,101,1.0,2.0,91,0.00,,OVC100,0.00,VWS V14.01,2013-06-15 07:49:00,
2013-06-15 03:54:00,43.6,41.2,30.01,East,101,1.0,2.0,91,0.00,,OVC100,0.00,VWS V14.01,2013-06-15 07:54:00,
2013-06-15 03:59:00,43.7,41.5,30.01,East,101,2.0,2.0,92,0.00,,OVC100,0.00,VWS V14.01,2013-06-15 07:59:00,
2013-06-15 04:04:00,43.8,41.3,30.00,ESE,115,3.0,3.0,91,0.00,,SCT090,0.00,VWS V14.01,2013-06-15 08:04:00,
2013-06-15 04:09:00,44.2,41.7,30.00,ESE,120,2.0,2.0,91,0.00,,SCT090,0.00,VWS V14.01,2013-06-15 08:09:00,
2013-06-15 04:14:00,44.4,41.9,30.01,ESE,120,1.0,1.0,91,0.00,,SCT090,0.00,VWS V14.01,2013-06-15 08:14:00,
2013-06-15 04:19:00,44.5,42.0,30.01,ESE,120,1.0,1.0,91,0.00,,SCT090,0.00,VWS V14.01,2013-06-15 08:19:00,
2013-06-15 04:24:00,45.0,42.2,30.00,ESE,120,1.0,1.0,90,0.00,,SCT090,0.00,VWS V14.01,2013-06-15 08:24:00,
2013-06-15 04:29:00,45.4,42.3,30.01,ESE,120,0.0,0.0,89,0.00,,SCT090,0.00,VWS V14.01,2013-06-15 08:29:00,
2013-06-15 04:34:00,45.5,42.7,30.01,ESE,120,1.0,2.0,90,0.00,,SCT090,0.00,VWS V14.01,2013-06-15 08:34:00,
2013-06-15 04:39:00,45.5,42.5,30.00,ESE,120,0.0,1.0,89,0.00,,SCT090,0.00,VWS V14.01,2013-06-15 08:39:00,
2013-06-15 04:44:00,45.4,42.3,30.00,ESE,120,1.0,2.0,89,0.00,,SCT090,0.00,VWS V14.01,2013-06-15 08:44:00,
2013-06-15 04:49:00,45.6,42.5,30.00,ESE,120,1.0,2.0,89,0.00,,SCT090,0.00,VWS V14.01,2013-06-15 08:49:00,
2013-06-15 04:54:00,45.6,42.5,30.00,ESE,120,1.0,1.0,89,0.00,,SCT090,0.00,VWS V14.01,2013-06-15 08:54:00,
2013-06-15 04:59:00,45.5,42.5,29.99,ESE,121,1.0,1.0,89,0.00,,SCT090,0.00,VWS V14.01,2013-06-15 08:59:00,
2013-06-15 05:04:00,45.9,42.0,29.99,ESE,121,0.0,1.0,86,0.00,,CLR,0.00,VWS V14.01,2013-06-15 09:04:00,
2013-06-15 05:09:00,45.4,42.1,30.00,ESE,121,0.0,0.0,88,0.00,,CLR,0.00,VWS V14.01,2013-06-15 09:09:00,
2013-06-15 05:14:00,44.6,41.6,30.00,ESE,121,1.0,2.0,89,0.00,,CLR,0.00,VWS V14.01,2013-06-15 09:14:00,
2013-06-15 05:19:00,45.0,42.0,30.00,ESE,121,0.0,1.0,89,0.00,,CLR,0.00,VWS V14.01,2013-06-15 09:19:00,
2013-06-15 05:24:00,45.4,42.3,30.00,ESE,121,0.0,1.0,89,0.00,,CLR,0.00,VWS V14.01,2013-06-15 09:24:00,
2013-06-15 05:29:00,45.6,42.5,30.00,ESE,121,1.0,1.0,89,0.00,,CLR,0.00,VWS V14.01,2013-06-15 09:29:00,
2013-06-15 05:34:00,45.7,42.7,30.00,ESE,121,0.0,0.0,89,0.00,,CLR,0.00,VWS V14.01,2013-06-15 09:34:00,
2013-06-15 05:39:00,45.8,42.8,30.00,ESE,121,1.0,1.0,89,0.00,,CLR,0.00,VWS V14.01,2013-06-15 09:39:00,
2013-06-15 05:44:00,46.1,43.3,30.00,ESE,121,1.0,1.0,90,0.00,,CLR,0.00,VWS V14.01,2013-06-15 09:44:00,
2013-06-15 05:49:00,46.7,43.9,30.00,ESE,121,1.0,1.0,90,0.00,,CLR,0.00,VWS V14.01,2013-06-15 09:49:00,
2013-06-15 05:54:00,47.1,43.4,30.00,ESE,121,0.0,1.0,87,0.00,,CLR,0.00,VWS V14.01,2013-06-15 09:54:00,
2013-06-15 06:00:00,47.6,43.3,30.00,ESE,121,1.0,1.0,85,0.00,,CLR,0.00,VWS V14.01,2013-06-15 10:00:00,
2013-06-15 06:05:00,47.4,43.7,30.01,ESE,121,0.0,0.0,87,0.00,,BKN100,0.00,VWS V14.01,2013-06-15 10:05:00,
2013-06-15 06:10:00,47.2,43.8,30.01,ESE,121,1.0,1.0,88,0.00,,BKN100,0.00,VWS V14.01,2013-06-15 10:10:00,
2013-06-15 06:15:00,47.3,43.3,30.01,ESE,121,1.0,1.0,86,0.00,,BKN100,0.00,VWS V14.01,2013-06-15 10:15:00,
2013-06-15 06:20:00,47.4,43.4,30.01,ESE,121,2.0,2.0,86,0.00,,BKN100,0.00,VWS V14.01,2013-06-15 10:20:00,
2013-06-15 06:25:00,47.6,44.2,30.00,ESE,104,1.0,2.0,88,0.00,,BKN100,0.00,VWS V14.01,2013-06-15 10:25:00,
2013-06-15 06:30:00,48.1,44.4,30.00,ESE,105,1.0,2.0,87,0.00,,BKN100,0.00,VWS V14.01,2013-06-15 10:30:00,
2013-06-15 06:35:00,48.8,43.6,30.00,ESE,105,1.0,1.0,82,0.00,,BKN100,0.00,VWS V14.01,2013-06-15 10:35:00,
2013-06-15 06:40:00,48.8,43.9,30.00,ESE,105,0.0,1.0,83,0.00,,BKN100,0.00,VWS V14.01,2013-06-15 10:40:00,
2013-06-15 06:45:00,48.9,44.6,30.01,ESE,105,1.0,1.0,85,0.00,,BKN100,0.00,VWS V14.01,2013-06-15 10:45:00,
2013-06-15 06:50:00,49.0,45.0,30.01,ESE,105,1.0,2.0,86,0.00,,BKN100,0.00,VWS V14.01,2013-06-15 10:50:00,
2013-06-15 06:55:00,49.5,45.2,30.01,ESE,105,1.0,2.0,85,0.00,,BKN100,0.00,VWS V14.01,2013-06-15 10:55:00,
2013-06-15 07:00:00,50.0,44.7,30.01,ESE,105,0.0,0.0,82,0.00,,BKN100,0.00,VWS V14.01,2013-06-15 11:00:00,
2013-06-15 07:05:00,50.3,45.7,30.01,ESE,105,0.0,0.0,84,0.00,,OVC110,0.00,VWS V14.01,2013-06-15 11:05:00,
2013-06-15 07:10:00,50.7,46.7,30.01,ESE,105,0.0,0.0,86,0.00,,OVC110,0.00,VWS V14.01,2013-06-15 11:10:00,
2013-06-15 07:15:00,51.2,45.2,30.01,ESE,105,1.0,1.0,80,0.00,,OVC110,0.00,VWS V14.01,2013-06-15 11:15:00,
2013-06-15 07:20:00,51.6,46.0,30.01,ESE,105,1.0,1.0,81,0.00,,OVC110,0.00,VWS V14.01,2013-06-15 11:20:00,
2013-06-15 07:25:00,52.3,46.0,30.01,ESE,105,1.0,1.0,79,0.00,,OVC110,0.00,VWS V14.01,2013-06-15 11:25:00,
2013-06-15 07:30:00,52.7,44.3,30.01,East,91,2.0,2.0,73,0.00,,OVC110,0.00,VWS V14.01,2013-06-15 11:30:00,
2013-06-15 07:35:00,53.0,44.6,30.01,East,91,1.0,1.0,73,0.00,,OVC110,0.00,VWS V14.01,2013-06-15 11:35:00,
2013-06-15 07:40:00,53.5,44.3,30.01,East,91,0.0,0.0,71,0.00,,OVC110,0.00,VWS V14.01,2013-06-15 11:40:00,
2013-06-15 07:45:00,53.9,43.6,30.01,East,91,0.0,1.0,68,0.00,,OVC110,0.00,VWS V14.01,2013-06-15 11:45:00,
2013-06-15 07:50:00,54.1,43.8,30.01,NE,46,0.0,0.0,68,0.00,,OVC110,0.00,VWS V14.01,2013-06-15 11:50:00,
2013-06-15 07:55:00,54.4,43.7,30.01,NE,46,1.0,2.0,67,0.00,,OVC110,0.00,VWS V14.01,2013-06-15 11:55:00,
2013-06-15 08:00:00,54.6,44.7,30.01,NE,46,1.0,1.0,69,0.00,,OVC110,0.00,VWS V14.01,2013-06-15 12:00:00,
2013-06-15 08:05:00,55.1,44.3,30.01,NE,46,0.0,0.0,67,0.00,,BKN100,0.00,VWS V14.01,2013-06-15 12:05:00,
2013-06-15 08:10:00,55.3,45.3,30.01,NE,46,2.0,2.0,69,0.00,,BKN100,0.00,VWS V14.01,2013-06-15 12:10:00,
2013-06-15 08:15:00,55.5,44.7,30.01,East,83,1.0,1.0,67,0.00,,BKN100,0.00,VWS V14.01,2013-06-15 12:15:00,
2013-06-15 08:20:00,55.6,44.0,30.01,East,83,0.0,1.0,65,0.00,,BKN100,0.00,VWS V14.01,2013-06-15 12:20:00,
2013-06-15 08:25:00,55.8,46.5,30.01,East,88,1.0,2.0,71,0.00,,BKN100,0.00,VWS V14.01,2013-06-15 12:25:00,
2013-06-15 08:30:00,56.1,47.6,30.01,East,93,2.0,2.0,73,0.00,,BKN100,0.00,VWS V14.01,2013-06-15 12:30:00,
2013-06-15 08:35:00,56.3,48.1,30.01,SSE,148,0.0,1.0,74,0.00,,BKN100,0.00,VWS V14.01,2013-06-15 12:35:00,
2013-06-15 08:40:00,56.5,48.3,30.01,SSE,148,0.0,1.0,74,0.00,,BKN100,0.00,VWS V14.01,2013-06-15 12:40:00,
2013-06-15 08:45:00,56.6,47.7,30.01,SSE,148,0.0,1.0,72,0.00,,BKN100,0.00,VWS V14.01,2013-06-15 12:45:00,
2013-06-15 08:50:00,56.8,46.8,30.01,SSW,196,1.0,2.0,69,0.00,,BKN100,0.00,VWS V14.01,2013-06-15 12:50:00,
2013-06-15 08:55:00,56.9,46.5,30.01,SSE,150,1.0,1.0,68,0.00,,BKN100,0.00,VWS V14.01,2013-06-15 12:55:00,
2013-06-15 09:00:00,56.9,47.2,30.01,SW,219,2.0,2.0,70,0.00,,BKN100,0.00,VWS V14.01,2013-06-15 13:00:00,
2013-06-15 09:05:00,56.9,46.1,30.01,SW,222,3.0,3.0,67,0.00,,-RA,0.00,VWS V14.01,2013-06-15 13:05:00,
2013-06-15 09:10:00,56.8,46.0,30.01,SSW,213,1.0,1.0,67,0.00,,-RA,0.00,VWS V14.01,2013-06-15 13:10:00,
2013-06-15 09:16:00,56.9,45.3,30.01,SW,229,2.0,2.0,65,0.00,,-RA,0.00,VWS V14.01,2013-06-15 13:16:00,
2013-06-15 09:20:00,57.1,46.7,30.01,SW,224,2.0,2.0,68,0.00,,-RA,0.00,VWS V14.01,2013-06-15 13:20:00,
2013-06-15 09:26:00,57.2,46.4,30.01,South,184,1.0,2.0,67,0.00,,-RA,0.00,VWS V14.01,2013-06-15 13:26:00,
2013-06-15 09:31:00,57.3,46.0,30.01,SE,130,1.0,2.0,66,0.00,,-RA,0.00,VWS V14.01,2013-06-15 13:31:00,
2013-06-15 09:36:00,57.6,46.7,30.01,SE,131,2.0,2.0,67,0.00,,-RA,0.00,VWS V14.01,2013-06-15 13:36:00,
2013-06-15 09:41:00,58.0,46.7,30.01,SE,133,1.0,2.0,66,0.00,,-RA,0.00,VWS V14.01,2013-06-15 13:41:00,
2013-06-15 09:46:00,58.2,48.1,30.00,ESE,119,3.0,3.0,69,0.00,,-RA,0.00,VWS V14.01,2013-06-15 13:46:00,
2013-06-15 09:51:00,58.4,47.1,30.00,SE,135,2.0,3.0,66,0.00,,-RA,0.00,VWS V14.01,2013-06-15 13:51:00,
2013-06-15 09:56:00,58.9,47.6,30.00,ESE,122,1.0,2.0,66,0.00,,-RA,0.00,VWS V14.01,2013-06-15 13:56:00,
2013-06-15 10:01:00,59.4,46.8,30.00,ESE,123,1.0,2.0,63,0.00,,-RA,0.00,VWS V14.01,2013-06-15 14:01:00,
2013-06-15 10:06:00,60.0,47.4,29.99,SE,141,1.0,1.0,63,0.00,,OVC043,0.00,VWS V14.01,2013-06-15 14:06:00,
2013-06-15 10:11:00,60.4,45.1,29.99,SE,140,2.0,2.0,57,0.00,,OVC043,0.00,VWS V14.01,2013-06-15 14:11:00,
2013-06-15 10:16:00,60.9,46.0,29.98,South,183,2.0,3.0,58,0.00,,OVC043,0.00,VWS V14.01,2013-06-15 14:16:00,
2013-06-15 10:21:00,61.6,44.8,29.98,SSW,208,1.0,2.0,54,0.00,,OVC043,0.00,VWS V14.01,2013-06-15 14:21:00,
2013-06-15 10:26:00,61.9,43.1,29.98,SW,215,1.0,2.0,50,0.00,,OVC043,0.00,VWS V14.01,2013-06-15 14:26:00,
2013-06-15 10:31:00,62.3,44.5,29.98,SW,224,1.0,1.0,52,0.00,,OVC043,0.00,VWS V14.01,2013-06-15 14:31:00,
2013-06-15 10:36:00,62.7,44.8,29.98,WSW,238,2.0,2.0,52,0.00,,OVC043,0.00,VWS V14.01,2013-06-15 14:36:00,
2013-06-15 10:41:00,62.9,45.5,29.98,WSW,245,2.0,2.0,53,0.00,,OVC043,0.00,VWS V14.01,2013-06-15 14:41:00,
2013-06-15 10:46:00,63.2,41.5,29.98,West,277,3.0,3.0,45,0.00,,OVC043,0.00,VWS V14.01,2013-06-15 14:46:00,
2013-06-15 10:51:00,63.2,46.3,29.99,NW,325,2.0,2.0,54,0.00,,OVC043,0.00,VWS V14.01,2013-06-15 14:51:00,
2013-06-15 10:56:00,63.6,45.2,29.99,WNW,303,1.0,2.0,51,0.00,,OVC043,0.00,VWS V14.01,2013-06-15 14:56:00,
2013-06-15 11:01:00,63.7,46.3,29.99,West,271,2.0,2.0,53,0.00,,OVC043,0.00,VWS V14.01,2013-06-15 15:01:00,
2013-06-15 11:06:00,64.0,47.5,29.98,NW,304,1.0,1.0,55,0.00,,OVC049,0.00,VWS V14.01,2013-06-15 15:06:00,
2013-06-15 11:11:00,64.8,46.3,29.97,North,7,3.0,3.0,51,0.00,,OVC049,0.00,VWS V14.01,2013-06-15 15:11:00,
2013-06-15 11:16:00,64.8,45.2,29.97,NW,306,4.0,4.0,49,0.00,,OVC049,0.00,VWS V14.01,2013-06-15 15:16:00,
2013-06-15 11:21:00,64.4,43.8,29.97,NW,312,2.0,2.0,47,0.00,,OVC049,0.00,VWS V14.01,2013-06-15 15:21:00,
2013-06-15 11:26:00,64.4,43.8,29.95,NNE,32,1.0,1.0,47,0.00,,OVC049,0.00,VWS V14.01,2013-06-15 15:26:00,
2013-06-15 11:31:00,64.7,42.9,29.95,East,80,1.0,1.0,45,0.00,,OVC049,0.00,VWS V14.01,2013-06-15 15:31:00,
2013-06-15 11:36:00,65.5,43.6,29.96,NE,46,1.0,2.0,45,0.00,,OVC049,0.00,VWS V14.01,2013-06-15 15:36:00,
2013-06-15 11:41:00,65.7,43.2,29.96,NNE,30,0.0,1.0,44,0.00,,OVC049,0.00,VWS V14.01,2013-06-15 15:41:00,
2013-06-15 11:46:00,66.6,43.4,29.95,SE,139,2.0,2.0,43,0.00,,OVC049,0.00,VWS V14.01,2013-06-15 15:46:00,
2013-06-15 11:51:00,66.3,44.3,29.95,WSW,238,2.0,4.0,45,0.00,,OVC049,0.00,VWS V14.01,2013-06-15 15:51:00,
2013-06-15 11:57:00,67.1,47.3,29.95,South,182,1.0,1.0,49,0.00,,OVC049,0.00,VWS V14.01,2013-06-15 15:57:00,
2013-06-15 12:02:00,67.8,46.9,29.95,SW,232,6.0,7.0,47,0.00,,OVC049,0.00,VWS V14.01,2013-06-15 16:02:00,
2013-06-15 12:07:00,67.4,44.8,29.95,WSW,238,6.0,7.0,44,0.00,,BKN034,0.00,VWS V14.01,2013-06-15 16:07:00,
2013-06-15 12:12:00,67.2,45.2,29.95,SSW,204,2.0,4.0,45,0.00,,BKN034,0.00,VWS V14.01,2013-06-15 16:12:00,
2013-06-15 12:17:00,67.2,45.2,29.95,WSW,250,3.0,3.0,45,0.00,,BKN034,0.00,VWS V14.01,2013-06-15 16:17:00,
2013-06-15 12:22:00,67.0,43.8,29.94,SW,218,5.0,5.0,43,0.00,,BKN034,0.00,VWS V14.01,2013-06-15 16:22:00,
2013-06-15 12:27:00,66.8,43.0,29.94,SE,140,1.0,2.0,42,0.00,,BKN034,0.00,VWS V14.01,2013-06-15 16:27:00,
2013-06-15 12:32:00,66.7,44.1,29.94,South,188,2.0,2.0,44,0.00,,BKN034,0.00,VWS V14.01,2013-06-15 16:32:00,
2013-06-15 12:37:00,66.7,46.4,29.94,WSW,246,1.0,2.0,48,0.00,,BKN034,0.00,VWS V14.01,2013-06-15 16:37:00,
2013-06-15 12:42:00,67.1,44.5,29.95,West,267,2.0,3.0,44,0.00,,BKN034,0.00,VWS V14.01,2013-06-15 16:42:00,
2013-06-15 12:47:00,67.2,42.1,29.95,WSW,238,4.0,4.0,40,0.00,,BKN034,0.00,VWS V14.01,2013-06-15 16:47:00,
2013-06-15 12:52:00,67.5,42.3,29.95,West,272,3.0,5.0,40,0.00,,BKN034,0.00,VWS V14.01,2013-06-15 16:52:00,
2013-06-15 12:57:00,67.7,42.5,29.95,WSW,253,3.0,4.0,40,0.00,,BKN034,0.00,VWS V14.01,2013-06-15 16:57:00,
2013-06-15 13:02:00,67.5,42.3,29.95,West,266,2.0,3.0,40,0.00,,BKN034,0.00,VWS V14.01,2013-06-15 17:02:00,
2013-06-15 13:07:00,67.6,42.4,29.95,SSW,192,5.0,6.0,40,0.00,,OVC050,0.00,VWS V14.01,2013-06-15 17:07:00,
2013-06-15 13:12:00,68.3,45.0,29.95,SW,224,4.0,4.0,43,0.00,,OVC050,0.00,VWS V14.01,2013-06-15 17:12:00,
2013-06-15 13:17:00,68.6,43.3,29.94,SSW,196,5.0,7.0,40,0.00,,OVC050,0.00,VWS V14.01,2013-06-15 17:17:00,
2013-06-15 13:22:00,68.9,44.9,29.94,SW,224,3.0,3.0,42,0.00,,OVC050,0.00,VWS V14.01,2013-06-15 17:22:00,
2013-06-15 13:27:00,69.2,45.2,29.94,SSW,213,3.0,5.0,42,0.00,,OVC050,0.00,VWS V14.01,2013-06-15 17:27:00,
2013-06-15 13:32:00,70.1,44.7,29.94,West,274,2.0,4.0,40,0.00,,OVC050,0.00,VWS V14.01,2013-06-15 17:32:00,
2013-06-15 13:37:00,69.7,44.3,29.94,West,262,2.0,3.0,40,0.00,,OVC050,0.00,VWS V14.01,2013-06-15 17:37:00,
2013-06-15 13:42:00,70.1,45.3,29.94,SW,220,5.0,5.0,41,0.00,,OVC050,0.00,VWS V14.01,2013-06-15 17:42:00,
2013-06-15 13:47:00,70.9,46.0,29.94,SW,220,2.0,2.0,41,0.00,,OVC050,0.00,VWS V14.01,2013-06-15 17:47:00,
2013-06-15 13:52:00,71.5,46.6,29.94,WSW,252,3.0,4.0,41,0.00,,OVC050,0.00,VWS V14.01,2013-06-15 17:52:00,
2013-06-15 13:57:00,70.8,46.6,29.94,West,275,3.0,3.0,42,0.00,,OVC050,0.00,VWS V14.01,2013-06-15 17:57:00,
2013-06-15 14:02:00,71.1,46.9,29.94,WNW,296,2.0,3.0,42,0.00,,OVC050,0.00,VWS V14.01,2013-06-15 18:02:00,
2013-06-15 14:07:00,71.1,45.6,29.94,SW,234,5.0,6.0,40,0.00,,OVC040,0.00,VWS V14.01,2013-06-15 18:07:00,
2013-06-15 14:12:00,70.9,44.7,29.94,SW,236,4.0,4.0,39,0.00,,OVC040,0.00,VWS V14.01,2013-06-15 18:12:00,
2013-06-15 14:17:00,71.3,44.4,29.94,SW,230,4.0,6.0,38,0.00,,OVC040,0.00,VWS V14.01,2013-06-15 18:17:00,
2013-06-15 14:22:00,71.3,43.7,29.93,SSW,194,5.0,5.0,37,0.00,,OVC040,0.00,VWS V14.01,2013-06-15 18:22:00,
2013-06-15 14:27:00,71.1,43.5,29.93,SW,231,4.0,4.0,37,0.00,,OVC040,0.00,VWS V14.01,2013-06-15 18:27:00,
2013-06-15 14:32:00,71.1,43.5,29.93,SSW,198,5.0,5.0,37,0.00,,OVC040,0.00,VWS V14.01,2013-06-15 18:32:00,
2013-06-15 14:37:00,70.8,44.6,29.93,SSW,205,3.0,4.0,39,0.00,,OVC040,0.00,VWS V14.01,2013-06-15 18:37:00,
2013-06-15 14:42:00,71.2,45.0,29.93,West,278,2.0,3.0,39,0.00,,OVC040,0.00,VWS V14.01,2013-06-15 18:42:00,
2013-06-15 14:47:00,71.3,44.4,29.93,WSW,242,2.0,3.0,38,0.00,,OVC040,0.00,VWS V14.01,2013-06-15 18:47:00,
2013-06-15 14:52:00,71.0,46.1,29.93,West,275,4.0,4.0,41,0.00,,OVC040,0.00,VWS V14.01,2013-06-15 18:52:00,
2013-06-15 14:58:00,71.4,45.8,29.93,SW,234,5.0,6.0,40,0.00,,OVC040,0.00,VWS V14.01,2013-06-15 18:58:00,
2013-06-15 15:03:00,71.6,45.4,29.93,West,263,3.0,3.0,39,0.00,,OVC028,0.00,VWS V14.01,2013-06-15 19:03:00,
2013-06-15 15:08:00,71.3,45.8,29.93,SW,233,2.0,2.0,40,0.00,,OVC028,0.00,VWS V14.01,2013-06-15 19:08:00,
2013-06-15 15:13:00,71.7,45.5,29.92,West,265,3.0,3.0,39,0.00,,OVC028,0.00,VWS V14.01,2013-06-15 19:13:00,
2013-06-15 15:18:00,70.6,47.7,29.92,WNW,290,2.0,3.0,44,0.00,,OVC028,0.00,VWS V14.01,2013-06-15 19:18:00,
2013-06-15 15:23:00,71.1,48.7,29.92,NW,309,3.0,3.0,45,0.00,,OVC028,0.00,VWS V14.01,2013-06-15 19:23:00,
2013-06-15 15:28:00,72.7,48.9,29.92,North,2,4.0,5.0,43,0.00,,OVC028,0.00,VWS V14.01,2013-06-15 19:28:00,
2013-06-15 15:33:00,72.6,48.2,29.91,North,352,5.0,5.0,42,0.00,,OVC028,0.00,VWS V14.01,2013-06-15 19:33:00,
2013-06-15 15:38:00,74.1,47.6,29.91,WNW,294,2.0,2.0,39,0.00,,OVC028,0.00,VWS V14.01,2013-06-15 19:38:00,
2013-06-15 15:43:00,73.5,47.7,29.91,West,270,3.0,3.0,40,0.00,,OVC028,0.00,VWS V14.01,2013-06-15 19:43:00,
2013-06-15 15:48:00,74.5,48.6,29.91,WSW,242,4.0,5.0,40,0.00,,OVC028,0.00,VWS V14.01,2013-06-15 19:48:00,
2013-06-15 15:53:00,74.1,45.5,29.92,SW,236,5.0,10.0,36,0.00,,OVC028,0.00,VWS V14.01,2013-06-15 19:53:00,
2013-06-15 15:58:00,72.8,45.0,29.92,SW,230,0.0,1.0,37,0.00,,OVC028,0.00,VWS V14.01,2013-06-15 19:58:00,
2013-06-15 16:03:00,72.6,48.2,29.91,NNW,335,3.0,3.0,42,0.00,,OVC028,0.00,VWS V14.01,2013-06-15 20:03:00,
2013-06-15 16:08:00,73.6,50.4,29.91,NW,313,6.0,9.0,44,0.00,,OVC035,0.00,VWS V14.01,2013-06-15 20:08:00,
2013-06-15 16:13:00,71.9,50.0,29.92,NNW,327,11.0,11.0,46,0.00,,OVC035,0.00,VWS V14.01,2013-06-15 20:13:00,
2013-06-15 16:18:00,70.2,50.7,29.92,NW,308,4.0,5.0,50,0.00,,OVC035,0.00,VWS V14.01,2013-06-15 20:18:00,
2013-06-15 16:23:00,69.8,51.4,29.92,North,351,10.0,10.0,52,0.00,,OVC035,0.00,VWS V14.01,2013-06-15 20:23:00,
2013-06-15 16:28:00,70.0,51.6,29.92,North,353,8.0,9.0,52,0.00,,OVC035,0.00,VWS V14.01,2013-06-15 20:28:00,
2013-06-15 16:33:00,69.9,52.0,29.92,NW,315,3.0,5.0,53,0.00,,OVC035,0.00,VWS V14.01,2013-06-15 20:33:00,
2013-06-15 16:38:00,70.8,53.3,29.92,WSW,241,3.0,7.0,54,0.00,,OVC035,0.00,VWS V14.01,2013-06-15 20:38:00,
2013-06-15 16:43:00,70.8,50.7,29.93,West,268,4.0,4.0,49,0.00,,OVC035,0.00,VWS V14.01,2013-06-15 20:43:00,
2013-06-15 16:48:00,70.7,51.7,29.93,NW,305,5.0,5.0,51,0.00,,OVC035,0.00,VWS V14.01,2013-06-15 20:48:00,
2013-06-15 16:53:00,69.2,52.4,29.93,NNW,333,3.0,4.0,55,0.00,,OVC035,0.00,VWS V14.01,2013-06-15 20:53:00,
2013-06-15 16:58:00,68.5,52.7,29.92,WNW,298,2.0,4.0,57,0.00,,OVC035,0.00,VWS V14.01,2013-06-15 20:58:00,
2013-06-15 17:03:00,69.1,53.2,29.92,WSW,254,3.0,6.0,57,0.00,,OVC035,0.00,VWS V14.01,2013-06-15 21:03:00,
2013-06-15 17:08:00,69.2,53.3,29.92,NW,304,2.0,4.0,57,0.00,,,0.00,VWS V14.01,2013-06-15 21:08:00,
2013-06-15 17:13:00,69.0,54.1,29.92,WSW,248,4.0,5.0,59,0.00,,,0.00,VWS V14.01,2013-06-15 21:13:00,
2013-06-15 17:18:00,68.7,54.3,29.92,South,187,4.0,4.0,60,0.00,,,0.00,VWS V14.01,2013-06-15 21:18:00,
2013-06-15 17:23:00,68.4,54.4,29.92,NW,312,3.0,5.0,61,0.00,,,0.00,VWS V14.01,2013-06-15 21:23:00,
2013-06-15 17:28:00,67.9,54.0,29.91,West,275,2.0,4.0,61,0.00,,,0.00,VWS V14.01,2013-06-15 21:28:00,
2013-06-15 17:33:00,68.1,54.6,29.91,WSW,258,7.0,9.0,62,0.00,,,0.00,VWS V14.01,2013-06-15 21:33:00,
2013-06-15 17:38:00,68.1,55.0,29.91,SW,223,5.0,5.0,63,0.00,,,0.00,VWS V14.01,2013-06-15 21:38:00,
2013-06-15 17:43:00,67.9,54.4,29.90,West,281,4.0,4.0,62,0.00,,,0.00,VWS V14.01,2013-06-15 21:43:00,
2013-06-15 17:48:00,67.7,54.2,29.90,SW,229,3.0,6.0,62,0.00,,,0.00,VWS V14.01,2013-06-15 21:48:00,
2013-06-15 17:53:00,67.9,55.3,29.90,West,267,6.0,6.0,64,0.00,,,0.00,VWS V14.01,2013-06-15 21:53:00,
2013-06-15 17:58:00,68.0,55.0,29.90,WSW,250,2.0,2.0,63,0.00,,,0.00,VWS V14.01,2013-06-15 21:58:00,
2013-06-15 18:03:00,68.0,54.5,29.90,SW,220,3.0,4.0,62,0.00,,OVC008,0.00,VWS V14.01,2013-06-15 22:03:00,
2013-06-15 18:08:00,68.0,55.4,29.89,WSW,239,5.0,5.0,64,0.00,,OVC008,0.00,VWS V14.01,2013-06-15 22:08:00,
2013-06-15 18:13:00,68.1,55.0,29.89,SW,216,2.0,4.0,63,0.00,,OVC008,0.00,VWS V14.01,2013-06-15 22:13:00,
2013-06-15 18:18:00,68.1,55.5,29.89,WSW,245,2.0,3.0,64,0.00,,OVC008,0.00,VWS V14.01,2013-06-15 22:18:00,
2013-06-15 18:23:00,68.1,55.9,29.89,SW,223,2.0,4.0,65,0.00,,OVC008,0.00,VWS V14.01,2013-06-15 22:23:00,
2013-06-15 18:28:00,68.0,55.8,29.88,West,260,2.0,2.0,65,0.00,,OVC008,0.00,VWS V14.01,2013-06-15 22:28:00,
2013-06-15 18:33:00,67.9,55.7,29.88,SW,225,2.0,2.0,65,0.00,,OVC008,0.00,VWS V14.01,2013-06-15 22:33:00,
2013-06-15 18:38:00,67.9,55.7,29.88,WSW,242,2.0,3.0,65,0.00,,OVC008,0.00,VWS V14.01,2013-06-15 22:38:00,
2013-06-15 18:44:00,67.8,55.6,29.87,WSW,248,4.0,5.0,65,0.00,,OVC008,0.00,VWS V14.01,2013-06-15 22:44:00,
2013-06-15 18:49:00,67.8,56.0,29.88,WSW,244,5.0,6.0,66,0.00,,OVC008,0.00,VWS V14.01,2013-06-15 22:49:00,
2013-06-15 18:54:00,67.7,56.0,29.87,WSW,254,2.0,3.0,66,0.00,,OVC008,0.00,VWS V14.01,2013-06-15 22:54:00,
2013-06-15 18:59:00,67.6,55.8,29.87,WSW,249,3.0,3.0,66,0.00,,OVC008,0.00,VWS V14.01,2013-06-15 22:59:00,
2013-06-15 19:04:00,67.6,56.3,29.86,WSW,249,3.0,3.0,67,0.00,,,0.00,VWS V14.01,2013-06-15 23:04:00,
2013-06-15 19:09:00,67.6,56.3,29.86,West,275,2.0,2.0,67,0.00,,,0.00,VWS V14.01,2013-06-15 23:09:00,
2013-06-15 19:14:00,67.5,56.6,29.86,WSW,248,3.0,4.0,68,0.00,,,0.00,VWS V14.01,2013-06-15 23:14:00,
2013-06-15 19:19:00,67.4,56.5,29.86,WSW,241,0.0,0.0,68,0.00,,,0.00,VWS V14.01,2013-06-15 23:19:00,
2013-06-15 19:24:00,67.4,56.9,29.85,SW,231,2.0,2.0,69,0.00,,,0.00,VWS V14.01,2013-06-15 23:24:00,
2013-06-15 19:29:00,67.3,56.8,29.86,SW,231,2.0,2.0,69,0.00,,,0.00,VWS V14.01,2013-06-15 23:29:00,
2013-06-15 19:34:00,67.3,56.8,29.85,SW,233,2.0,3.0,69,0.00,,,0.00,VWS V14.01,2013-06-15 23:34:00,
2013-06-15 19:39:00,67.2,57.1,29.85,SW,229,3.0,3.0,70,0.00,,,0.00,VWS V14.01,2013-06-15 23:39:00,
2013-06-15 19:44:00,67.2,57.1,29.84,SSE,156,0.0,1.0,70,0.00,,,0.00,VWS V14.01,2013-06-15 23:44:00,
2013-06-15 19:53:00,67.2,57.1,29.84,SSW,200,0.0,1.0,70,0.00,,,0.00,VWS V14.01,2013-06-15 23:53:00,
2013-06-15 19:58:00,67.2,57.1,29.84,SSE,155,1.0,2.0,70,0.00,,,0.00,VWS V14.01,2013-06-15 23:58:00,
2013-06-15 20:03:00,67.0,56.9,29.83,SSE,154,1.0,2.0,70,0.00,,OVC008,0.00,VWS V14.01,2013-06-16 00:03:00,
2013-06-15 20:08:00,66.9,57.2,29.83,SSE,155,1.0,1.0,71,0.00,,OVC008,0.00,VWS V14.01,2013-06-16 00:08:00,
2013-06-15 20:13:00,66.8,57.1,29.83,SSE,156,0.0,0.0,71,0.00,,OVC008,0.00,VWS V14.01,2013-06-16 00:13:00,
2013-06-15 20:18:00,66.7,57.0,29.83,SSE,156,0.0,1.0,71,0.00,,OVC008,0.00,VWS V14.01,2013-06-16 00:18:00,
2013-06-15 20:23:00,66.6,56.9,29.83,SSE,156,1.0,1.0,71,0.00,,OVC008,0.00,VWS V14.01,2013-06-16 00:23:00,
2013-06-15 20:28:00,66.4,57.5,29.83,SSE,156,1.0,1.0,73,0.00,,OVC008,0.00,VWS V14.01,2013-06-16 00:28:00,
2013-06-15 20:33:00,66.2,57.7,29.83,SSE,156,0.0,1.0,74,0.00,,OVC008,0.00,VWS V14.01,2013-06-16 00:33:00,
2013-06-15 20:38:00,65.8,58.0,29.83,SSE,156,0.0,0.0,76,0.00,,OVC008,0.00,VWS V14.01,2013-06-16 00:38:00,
2013-06-15 20:43:00,65.5,57.7,29.83,SSE,156,1.0,2.0,76,0.00,,OVC008,0.00,VWS V14.01,2013-06-16 00:43:00,
2013-06-15 20:48:00,65.4,58.0,29.83,SSE,156,0.0,1.0,77,0.00,,OVC008,0.00,VWS V14.01,2013-06-16 00:48:00,
2013-06-15 20:53:00,65.5,57.7,29.83,SSE,156,0.0,0.0,76,0.00,,OVC008,0.00,VWS V14.01,2013-06-16 00:53:00,
2013-06-15 20:58:00,65.3,58.3,29.83,SSE,156,1.0,1.0,78,0.00,,OVC008,0.00,VWS V14.01,2013-06-16 00:58:00,
2013-06-15 21:03:00,65.1,58.4,29.82,SSE,156,2.0,2.0,79,0.00,,OVC120,0.00,VWS V14.01,2013-06-16 01:03:00,
2013-06-15 21:08:00,65.0,58.0,29.82,SSE,156,1.0,2.0,78,0.00,,OVC120,0.00,VWS V14.01,2013-06-16 01:08:00,
2013-06-15 21:13:00,64.9,57.9,29.82,SSE,156,2.0,3.0,78,0.00,,OVC120,0.00,VWS V14.01,2013-06-16 01:13:00,
2013-06-15 21:18:00,64.8,58.1,29.82,SSE,156,1.0,2.0,79,0.00,,OVC120,0.00,VWS V14.01,2013-06-16 01:18:00,
2013-06-15 21:24:00,64.7,58.0,29.82,SSE,156,1.0,1.0,79,0.00,,OVC120,0.00,VWS V14.01,2013-06-16 01:24:00,
2013-06-15 21:29:00,64.6,58.3,29.81,SSE,156,1.0,2.0,80,0.00,,OVC120,0.00,VWS V14.01,2013-06-16 01:29:00,
2013-06-15 21:34:00,64.4,58.1,29.81,SSE,156,1.0,1.0,80,0.00,,OVC120,0.00,VWS V14.01,2013-06-16 01:34:00,
2013-06-15 21:39:00,64.5,57.8,29.81,SSE,156,1.0,1.0,79,0.00,,OVC120,0.00,VWS V14.01,2013-06-16 01:39:00,
2013-06-15 21:44:00,64.3,58.3,29.81,SSE,156,2.0,2.0,81,0.00,,OVC120,0.00,VWS V14.01,2013-06-16 01:44:00,
2013-06-15 21:49:00,63.6,58.3,29.81,SSE,156,1.0,1.0,83,0.00,,OVC120,0.00,VWS V14.01,2013-06-16 01:49:00,
2013-06-15 21:54:00,63.3,59.0,29.81,SSE,156,0.0,1.0,86,0.00,,OVC120,0.00,VWS V14.01,2013-06-16 01:54:00,
2013-06-15 21:59:00,62.9,59.3,29.81,SSE,156,0.0,1.0,88,0.00,,OVC120,0.00,VWS V14.01,2013-06-16 01:59:00,
2013-06-15 22:04:00,62.7,59.1,29.81,SSE,156,1.0,1.0,88,0.00,,,0.00,VWS V14.01,2013-06-16 02:04:00,
2013-06-15 22:09:00,62.8,59.5,29.81,SSE,156,1.0,1.0,89,0.00,,,0.00,VWS V14.01,2013-06-16 02:09:00,
2013-06-15 22:14:00,62.5,59.5,29.82,SSE,156,1.0,2.0,90,0.00,,,0.00,VWS V14.01,2013-06-16 02:14:00,
2013-06-15 22:19:00,62.2,59.5,29.82,WNW,288,2.0,3.0,91,0.00,,,0.00,VWS V14.01,2013-06-16 02:19:00,
2013-06-15 22:24:00,62.0,59.3,29.82,NW,323,2.0,2.0,91,0.00,,,0.00,VWS V14.01,2013-06-16 02:24:00,
2013-06-15 22:29:00,61.8,59.2,29.82,NNW,344,3.0,4.0,91,0.00,,,0.00,VWS V14.01,2013-06-16 02:29:00,
2013-06-15 22:34:00,61.8,59.2,29.82,North,7,3.0,3.0,91,0.00,,,0.00,VWS V14.01,2013-06-16 02:34:00,
2013-06-15 22:39:00,61.6,59.0,29.82,NNW,338,2.0,2.0,91,0.00,,,0.00,VWS V14.01,2013-06-16 02:39:00,
2013-06-15 22:44:00,61.3,58.7,29.82,NW,307,2.0,2.0,91,0.00,,,0.00,VWS V14.01,2013-06-16 02:44:00,
2013-06-15 22:49:00,61.0,58.4,29.82,NW,311,2.0,2.0,91,0.00,,,0.00,VWS V14.01,2013-06-16 02:49:00,
2013-06-15 22:54:00,60.7,58.1,29.83,WNW,300,1.0,1.0,91,0.00,,,0.00,VWS V14.01,2013-06-16 02:54:00,
2013-06-15 22:59:00,60.2,57.6,29.83,NW,304,3.0,4.0,91,0.00,,,0.00,VWS V14.01,2013-06-16 02:59:00,
2013-06-15 23:04:00,59.6,57.3,29.83,NW,304,7.0,7.0,92,0.00,,,0.00,VWS V14.01,2013-06-16 03:04:00,
2013-06-15 23:09:00,58.9,56.6,29.83,NNW,331,2.0,3.0,92,0.01,,,0.01,VWS V14.01,2013-06-16 03:09:00,
2013-06-15 23:14:00,58.4,56.4,29.83,NNW,341,1.0,2.0,93,0.01,,,0.01,VWS V14.01,2013-06-16 03:14:00,
2013-06-15 23:19:00,58.1,56.1,29.83,North,2,3.0,4.0,93,0.01,,,0.01,VWS V14.01,2013-06-16 03:19:00,
2013-06-15 23:24:00,58.0,56.3,29.83,North,7,1.0,2.0,94,0.01,,,0.01,VWS V14.01,2013-06-16 03:24:00,
2013-06-15 23:29:00,58.0,56.3,29.83,NNE,13,1.0,2.0,94,0.01,,,0.01,VWS V14.01,2013-06-16 03:29:00,
2013-06-15 23:34:00,58.0,56.3,29.83,North,357,2.0,3.0,94,0.01,,,0.01,VWS V14.01,2013-06-16 03:34:00,
2013-06-15 23:39:00,58.0,56.3,29.83,North,357,1.0,1.0,94,0.01,,,0.01,VWS V14.01,2013-06-16 03:39:00,
2013-06-15 23:44:00,58.0,56.6,29.83,North,357,0.0,0.0,95,0.01,,,0.01,VWS V14.01,2013-06-16 03:44:00,
2013-06-15 23:49:00,57.9,56.5,29.82,NNW,328,1.0,2.0,95,0.02,,,0.02,VWS V14.01,2013-06-16 03:49:00,
2013-06-15 23:54:00,57.8,56.4,29.82,NNW,328,1.0,2.0,95,0.02,,,0.02,VWS V14.01,2013-06-16 03:54:00,
2013-06-15 23:59:00,57.7,56.3,29.82,NNW,328,2.0,2.0,95,0.02,,,0.02,VWS V14.01,2013-06-16 03:59:00,